AQI (73)

Current Conditions for Foresthill, CA. Dusk, Clear skies, Dry   
Visibility: 10 miles
Space WX Alerts: EXTENDED WARNING:  Geomagnetic K-index of 4 expected ( Latest Alert ) - Issue Time: 2020 Sep 28 2354 UTC

  Summary / Temperature 

Current Temperature
85.4°F
29.7°C
(24/hr Ago)
84.6°F
(Apparent temp)
83.1°F
Warm
Heat Index
82.7°F 

85.4°F/ 29.7°C
Noticeable discomfort

 Temp Rate:

 24/hr Difference:

 Avg Running Temp:

 Todays High:

 Todays Low:

 Y-days High:

 Y-days Low:

 Todays HeatIdx:

 Y-days HeatIdx:

 Evapotranspiration:

-2.4°F/hr 

+0.80000000000001°F

89.5°F

98.7°F 1:46pm

73.4°F 7:26am

94.8°F 2:28pm

66.0°F 12:28am

93.9°F 1:48pm

91.2°F 2:29pm

0.270 in

115' Above Ground

 Temperature:

 6'AGL VRS 115'AGL:

 Avg Running Temp:

 Humidity:

 Todays High:

 Todays Low:

 Y-days High:

 Y-days Low:

86.0°F 

+0.59999999999999°F

88.3°F

19% 

94.0°F 1:41pm

83.0°F 10:14am

92.0°F 2:16pm

74.0°F 12:00am

Temp & Humidity Graphs

  Wind 

Wind Speed

 Calm

Gusting to

 1.0 mph

Calm

277°  

Calm

 Avg speed:

 Wind Run:

 Peak Gust:

Calm 

146.0 miles

  35.0 mph 1:12am

  Almanac  

Moon age: 12 days,4 hours,36 minutes,93%

Waxing Gibbous
93%
Illuminated
12 days in cycle

 Moonrise:

 Moonset:

 Sunrise:

 Sunset:

 Solar Noon:

5:52pm

3:41am

6:58am

6:51pm

12:54pm

2min 32s less daylight tomorrow 

  Solar Radiation 

(Current Solar)
  26 W/m2 (118%)
(Todays High)
 737 W/m2@12:29pm
Feels like: 89.8°F in the sun

Rain

 Rain Today:

 Rain Rate (/hr):

 Rain last hour:

 Rain Yesterday:

 This Month:

 Season Total:

42 Days Since Last Rain Day

0.00 in

0.000 in

0.00 in

0.00 in

0.00 in

0.01 in

Updated Time

Updated: 9/28/20  6:19pm

(Updated  sec ago)

Humidity & Barometer

 Humidity:

 Wetbulb:

 Dew Point:

 Barometer:

20% 

64.2°F 

39.8°F 

29.882 inHg 

 Baro Trend:  Steady 
Northern Calif
Preparedness
Fire 
Level 

    UV Index  

(Current UV)
0.0  None
(Todays High) @ 12:54pm
5.5   Medium

National Weather Service Forecast

This
Afternoon
This Afternoon: Sunny
Sunny
Tonight

Tonight: Haze
Haze
Tuesday

Tuesday: Haze
Haze
Tuesday
Night
Tuesday Night: Clear
Clear
Wednesday

Wednesday: Sunny
Sunny
Wednesday
Night
Wednesday Night: Clear
Clear
Hi 92 °F ↓ Lo 70 °F ↑ Hi 90 °F ↓ Lo 69 °F Hi 92 °F Lo 70 °F

Foresthill Probe 2 Stats  
Foresthill Probe 2: is located on Thomas Street
at 3000 feet. The main Foresthill Weather site
is located on Melody ln at the 2860 foot elevation

Calm
80.4°F
26.9°C
Temp Rate:
-2.8°F
Calm
Gusting to
None
(Humidity)
24%
Calm
72°  
Updated: 28/09/20 - 18:21:35
 Todays High: 93.2°F 13:59
 Todays Low: 72.9°F 07:13
 Rain Today: 0.00 in
 Season Total: 0.01 in

Foresthill Wx: Monthly,Yearly, Highs and Lows 

Foresthill  
This Weather Data is coming from the main Foresthill
Weather site located on Melody ln at the 2860 foot
elevation
Not Foresthill Probe 2
Weather Data
Month
  High
Month
  Low
Year
High
Year
Low
Temp 101.7°F
9/6/20
56.1°F
9/19/20
101.8°F
8/15/20
28.3°F
2/3/20
Humidity 72%
9/18/20
6%
9/8/20
100%
1/8/20
6%
9/8/20
Heat Index 98.9°F
9/6/20
58.9°F
9/19/20
101.7°F
8/17/20
28.2°F
2/4/20
Wind Chill 101.7°F
9/6/20
53.0°F
9/19/20
101.8°F
8/15/20
14.7°F
2/3/20
Wind Gust 38 mph
9/8/20
0 mph
9/1/20
46 mph
2/9/20
0 mph
1/1/20
Barometer 30.09 in
9/23/20
29.59 in
9/8/20
30.59 in
1/5/20
29.57 in
6/28/20
ET 0.29 in
9/8/20
0.00 in
9/1/20
0.31 in
6/27/20
0.00 in
1/1/20
Dew Point 58.4°F
9/5/20
12.4°F
9/8/20
67.5°F
6/26/20
-2.6°F
2/3/20
Visible Satellite Pacific Satellite US Radar Satellite Imagery Sacramento,CA.  (click to enlarge)
NWS Weather Forecast - Summary
Updated: Monday, Sepember 28, 2020 - 2:42pm PDT
Red Flag Warning Continues Through 9 PM PDT Tonight
NWS Weather Forecast: This Afternoon and Tonight (Updated: Mon, 28-Sep-2020 2:35pm PDT)
This
Afternoon
This Afternoon: Sunny
Sunny

Hi 92 °F ↓
NWS forecast: Sunny. High near 92, with temperatures falling to around 89 in the afternoon. West wind around 6 mph.
Tonight

Tonight: Haze
Haze

Lo 70 °F ↑
NWS forecast: Haze and patchy smoke after 11pm. Clear. Low around 70, with temperatures rising to around 72 overnight. East southeast wind 6 to 13 mph.
YR.NO 10 Day Weather forecast
Last update: 09/28/2020 @ 13:59
Next update: 09/28/2020 @ 20:07
Provided by: 22
      Temperature Precipitation Pressure Wind  
Today
09/28/2020
16:00 18:00 91°F   29.91 inHg Light air from south 3 mph
  18:00 00:00 86°F   29.94 inHg Light air from southeast 3 mph
    (Click to enlarge)
meteogram

    Forecast for next 9 days

      Temperature Precip Pressure Wind  
Tuesday
09/29/2020
00:00 06:00 70°F   30.00 inHg Gentle breeze from east 9 mph
  06:00 12:00 61°F   30.03 inHg Gentle breeze from east-northeast 8 mph
  12:00 18:00 90°F   30.05 inHg Light breeze from southwest 7 mph
  18:00 00:00 84°F   30.02 inHg Light breeze from west-southwest 4 mph
      Temperature Precip Pressure Wind  
Wednesday
09/30/2020
00:00 06:00 61°F   30.08 inHg Light breeze from east-northeast 4 mph
  06:00 12:00 59°F   30.07 inHg Light breeze from east-northeast 7 mph
  12:00 18:00 91°F   30.05 inHg Light breeze from west-northwest 6 mph
  18:00 00:00 86°F   29.99 inHg Light breeze from west-northwest 5 mph
  23:00 05:00 63°F   30.01 inHg Light breeze from east-northeast 6 mph
      Temperature Precip Pressure Wind  
Thursday
10/01/2020
05:00 11:00 66°F   29.96 inHg Gentle breeze from east-northeast 9 mph
  11:00 17:00 91°F   29.97 inHg Light air from south-southwest 3 mph
  17:00 23:00 90°F   29.91 inHg Light breeze from west-southwest 4 mph
  23:00 05:00 63°F   29.95 inHg Light breeze from east-northeast 5 mph
      Temperature Precip Pressure Wind  
Friday
10/02/2020
05:00 11:00 59°F   29.95 inHg Light breeze from east-northeast 7 mph
  11:00 17:00 90°F   29.98 inHg Light breeze from west-southwest 4 mph
  17:00 23:00 88°F   29.92 inHg Light breeze from west-southwest 6 mph
  23:00 05:00 61°F   29.94 inHg Light breeze from east-northeast 4 mph
      Temperature Precip Pressure Wind  
Saturday
10/03/2020
05:00 11:00 57°F   29.91 inHg Light breeze from east 6 mph
  11:00 17:00 86°F   29.93 inHg Light breeze from west-southwest 4 mph
  17:00 23:00 84°F   29.87 inHg Light breeze from west-southwest 4 mph
  23:00 05:00 59°F   29.91 inHg Light breeze from east-northeast 4 mph
      Temperature Precip Pressure Wind  
Sunday
10/04/2020
05:00 11:00 54°F   29.92 inHg Light breeze from east-northeast 5 mph
  11:00 17:00 86°F   29.93 inHg Light breeze from west-southwest 4 mph
  17:00 23:00 82°F   29.91 inHg Light breeze from west-southwest 4 mph
  23:00 05:00 59°F   29.95 inHg Light breeze from east-northeast 4 mph
      Temperature Precip Pressure Wind  
Monday
10/05/2020
05:00 11:00 55°F   29.95 inHg Light breeze from east-northeast 5 mph
  11:00 17:00 84°F   29.99 inHg Light breeze from west-southwest 4 mph
  17:00 23:00 81°F   29.97 inHg Light breeze from west-southwest 5 mph
  23:00 05:00 61°F   30.03 inHg Light air from east 2 mph
      Temperature Precip Pressure Wind  
Tuesday
10/06/2020
05:00 11:00 52°F   30.00 inHg Light breeze from east 5 mph
  11:00 17:00 79°F   29.99 inHg Light breeze from west-southwest 4 mph
  17:00 23:00 77°F   29.91 inHg Light breeze from west-southwest 5 mph
  23:00 05:00 61°F   29.94 inHg Light air from east 2 mph
      Temperature Precip Pressure Wind  
Wednesday
10/07/2020
05:00 11:00 48°F   29.90 inHg Light air from east 3 mph
  11:00 17:00 70°F   29.94 inHg Light breeze from west-southwest 5 mph
  17:00 23:00 68°F   29.92 inHg Light breeze from southwest 6 mph
How Close Are We To this Month's Temperature Record ?
Updated Monday, Sep 28, 2020- 6:20:01 PM

Current Temperature: 85.4°F

September's High: Temperature Record 101.7°F - Set on Sun, Sep 6, 2020 - 4:55:59 PM
We are currently 16.3°F Less than this Month's record High

September's Low: Temperature Record 38.1°F - Set on Sun, Sep 29, 2019 - 7:08:00 AM
We are currently 47.3°F More than this Month's record Low

Weather History For Monday, September 28, 2020


On this Day - In Weather History ...
Data courtesy of weatherforyou.com
powered by Cumulus v1.9.3 (1059)
Ambient Weather VWS v14.00
Top Website Map Copyright © 2007 - 2020 Foresthillweather.com Never base important decisions on this or any weather information obtained from the Internet